sat.trackr.live / text

‹ back to catalog

STARLINK-36963

NORAD 68235 · 2026-054D

PAYLOAD ACTIVE UNKNOWN

§ Identity

Operator
Country
US
Launch date
2026-03-17
Launch site
AFETR
Launch vehicle
Mass (kg)
RCS (m²)

Purposes: comms

External: N2YO · Heavens-Above · Gunter

§ Orbital elements

Epoch: 2026-05-25T04:00:03.998880Z

Period
93.85 min
Inclination
53.1588°
Eccentricity
0.0000562
Mean motion
15.34383056 rev/d
Perigee alt
462.4 km
Apogee alt
463.1 km
Semi-major
6,840.9 km
B*
3.1133e-4
RAAN
295.2398°
Arg perigee
97.5447°
Mean anomaly
136.8385°
Rev number
589

§ Raw data

STARLINK-369631 68235U 26054D   26145.16671295  .00010151  00000+0  31133-3 0  99972 68235  53.1588 295.2398 0000562  97.5447 136.8385 15.34383056  5897

JSON: /api/v1/satellites/68235 · /tle

For live sub-satellite position, see the globe view (requires WebGL).

§ Visibility from observer

Set your observer location to see the next 7 days of passes ≥ 10°. The values pass through the URL so the page stays shareable.

No JS? Fill the form by hand. The geolocation button needs JavaScript.